TimeEST,TemperatureF,Dew PointF,Humidity,Sea Level PressureIn,VisibilityMPH,Wind Direction,Wind SpeedMPH,Gust SpeedMPH,PrecipitationIn,Events,Conditions,WindDirDegrees,DateUTC
12:19 AM,32.0,28.4,87,29.69,2.5,NNW,13.8,-,0.00,Snow,Light Snow,330,2013-03-05 05:19:00
12:34 AM,30.2,28.4,93,29.70,3.0,NNW,12.7,-,0.00,Snow,Light Snow,330,2013-03-05 05:34:00
12:53 AM,32.0,28.9,88,29.72,5.0,NNW,12.7,-,0.00,,Overcast,330,2013-03-05 05:53:00
2:46 AM,30.2,30.2,100,29.74,2.5,NNW,15.0,-,0.00,Snow,Light Snow,340,2013-03-05 07:46:00
2:53 AM,32.0,30.0,92,29.76,2.5,NNW,16.1,-,0.00,Snow,Light Snow,340,2013-03-05 07:53:00
3:44 AM,32.0,30.2,93,29.77,2.5,NNW,15.0,-,0.00,Snow,Light Snow,340,2013-03-05 08:44:00
3:53 AM,32.0,30.0,92,29.79,2.5,NNW,13.8,-,0.00,Snow,Light Snow,340,2013-03-05 08:53:00
4:15 AM,32.0,30.2,93,29.79,3.0,NNW,13.8,-,0.00,Snow,Light Snow,340,2013-03-05 09:15:00
4:31 AM,32.0,30.2,93,29.80,3.0,NNW,13.8,-,0.00,Snow,Light Snow,340,2013-03-05 09:31:00
4:36 AM,32.0,30.2,93,29.80,2.5,North,12.7,-,0.00,Snow,Light Snow,350,2013-03-05 09:36:00
4:44 AM,32.0,30.2,93,29.80,2.5,NNW,12.7,-,0.00,Snow,Light Snow,340,2013-03-05 09:44:00
4:53 AM,32.0,30.0,92,29.82,2.5,NNW,12.7,-,0.00,Snow,Light Snow,340,2013-03-05 09:53:00
5:04 AM,32.0,30.2,93,29.82,3.0,North,11.5,-,0.00,Snow,Light Snow,350,2013-03-05 10:04:00
5:53 AM,32.0,30.9,96,29.86,4.0,NNW,11.5,-,0.00,Snow,Light Snow,340,2013-03-05 10:53:00
6:11 AM,32.0,30.2,93,29.85,2.0,North,10.4,-,0.00,Snow,Light Snow,350,2013-03-05 11:11:00
6:22 AM,32.0,30.2,93,29.86,1.8,North,10.4,-,0.00,Snow,Light Snow,350,2013-03-05 11:22:00
6:43 AM,32.0,30.2,93,29.87,2.0,North,10.4,-,0.00,Snow,Light Snow,350,2013-03-05 11:43:00
6:50 AM,32.0,30.2,93,29.87,1.2,North,11.5,-,0.00,Snow,Light Snow,350,2013-03-05 11:50:00
6:53 AM,32.0,30.9,96,29.89,1.2,North,10.4,-,0.00,Snow,Light Snow,350,2013-03-05 11:53:00
7:02 AM,32.0,30.2,93,29.88,2.0,North,11.5,-,0.00,Snow,Light Snow,360,2013-03-05 12:02:00
7:32 AM,33.8,30.2,87,29.88,3.0,North,12.7,-,N/A,Snow,Light Snow,350,2013-03-05 12:32:00
7:47 AM,33.8,30.2,87,29.89,2.5,North,11.5,-,0.00,Snow,Light Snow,350,2013-03-05 12:47:00
7:53 AM,33.8,30.2,87,29.89,2.5,North,11.5,-,N/A,Snow,Light Snow,350,2013-03-05 12:53:00
8:01 AM,33.8,30.2,87,29.90,3.0,North,11.5,-,0.00,Snow,Light Snow,350,2013-03-05 13:01:00
8:53 AM,35.1,32.0,89,29.92,10.0,North,11.5,-,0.00,,Overcast,360,2013-03-05 13:53:00
9:53 AM,36.0,30.9,82,29.94,8.0,NNE,10.4,-,0.00,Rain,Light Rain,20,2013-03-05 14:53:00
10:04 AM,35.6,32.0,87,29.93,10.0,North,10.4,-,0.00,Rain,Light Rain,360,2013-03-05 15:04:00
10:45 AM,37.4,30.2,75,29.93,10.0,NNE,18.4,24.2,0.00,,Overcast,20,2013-03-05 15:45:00
10:53 AM,37.0,30.9,79,29.95,10.0,NNE,11.5,-,0.00,,Overcast,20,2013-03-05 15:53:00
11:53 AM,37.9,30.9,76,29.96,10.0,NNE,13.8,19.6,N/A,,Overcast,30,2013-03-05 16:53:00
12:53 PM,39.0,30.9,73,29.97,10.0,North,11.5,17.3,0.00,,Mostly Cloudy,10,2013-03-05 17:53:00
1:34 PM,39.2,30.2,70,29.96,10.0,NNE,17.3,25.3,N/A,,Overcast,30,2013-03-05 18:34:00
1:53 PM,39.9,32.0,73,29.98,10.0,North,13.8,-,N/A,,Mostly Cloudy,10,2013-03-05 18:53:00
2:03 PM,39.2,30.2,70,29.97,10.0,NNE,15.0,20.7,N/A,,Mostly Cloudy,30,2013-03-05 19:03:00
2:13 PM,39.2,30.2,70,29.97,10.0,North,10.4,-,N/A,,Scattered Clouds,360,2013-03-05 19:13:00
2:53 PM,41.0,30.9,67,29.99,10.0,North,10.4,-,N/A,,Mostly Cloudy,10,2013-03-05 19:53:00
3:03 PM,39.2,30.2,70,29.98,10.0,NE,11.5,-,N/A,,Mostly Cloudy,40,2013-03-05 20:03:00
3:10 PM,41.0,30.2,65,29.98,10.0,NNE,11.5,-,N/A,,Mostly Cloudy,30,2013-03-05 20:10:00
3:19 PM,41.0,30.2,65,29.98,10.0,North,9.2,-,N/A,,Mostly Cloudy,10,2013-03-05 20:19:00
3:44 PM,41.0,30.2,65,29.98,10.0,NNE,15.0,-,N/A,,Overcast,20,2013-03-05 20:44:00
3:53 PM,41.0,30.9,67,30.00,10.0,North,13.8,-,N/A,,Overcast,10,2013-03-05 20:53:00
4:10 PM,41.0,32.0,70,29.99,10.0,North,12.7,-,N/A,,Overcast,360,2013-03-05 21:10:00
4:53 PM,39.0,32.0,76,30.02,10.0,NNE,12.7,-,N/A,,Overcast,20,2013-03-05 21:53:00
5:53 PM,37.9,30.9,76,30.05,10.0,NNE,10.4,-,0.00,,Overcast,20,2013-03-05 22:53:00
6:53 PM,37.9,30.9,76,30.06,10.0,North,8.1,-,N/A,,Overcast,360,2013-03-05 23:53:00
7:09 PM,37.4,30.2,75,30.05,10.0,North,5.8,-,N/A,,Overcast,360,2013-03-06 00:09:00
7:53 PM,37.0,32.0,82,30.08,10.0,NNE,9.2,-,N/A,,Overcast,20,2013-03-06 00:53:00
8:44 PM,35.6,30.2,81,30.07,10.0,NNE,13.8,-,N/A,,Overcast,30,2013-03-06 01:44:00
8:53 PM,36.0,30.9,82,30.09,10.0,NE,16.1,23.0,N/A,,Overcast,40,2013-03-06 01:53:00
9:33 PM,35.6,30.2,81,30.08,10.0,NE,12.7,20.7,0.00,Rain,Light Rain,40,2013-03-06 02:33:00
9:53 PM,34.0,30.9,89,30.10,10.0,NE,11.5,-,0.00,,Overcast,40,2013-03-06 02:53:00
10:53 PM,34.0,30.9,89,30.12,10.0,NE,11.5,-,N/A,,Overcast,40,2013-03-06 03:53:00
10:55 PM,33.8,30.2,87,30.10,10.0,NE,9.2,-,N/A,,Overcast,40,2013-03-06 03:55:00
11:02 PM,33.8,30.2,87,30.11,10.0,NNE,9.2,-,N/A,,Overcast,30,2013-03-06 04:02:00
11:09 PM,33.8,30.2,87,30.11,7.0,NE,10.4,-,N/A,,Overcast,40,2013-03-06 04:09:00
11:53 PM,33.1,30.9,92,30.14,8.0,NNE,8.1,-,0.00,Snow,Light Snow,20,2013-03-06 04:53:00